Buycom Domain

Find and Buy Brandable Name and Domain with SEO Metrics

Daily Picks Auctioned Expiring Domains 07-09-2017

Daily Picks Expiring Domain Name

Hand picked domain names for 7 September 2017.
Today we have picked 3 LLLL .com, 2 numerics .com and one 3 letters .cc domain names, totally we have picked 42 domains.

Currently, ExpertMovers.com gets the most bid with 33 bids and the highest bid at $280, while NKFT.com get the highest bid at $1,059 from 22 bids. We also pick some one-word domain names, Explore.info and Nominal.net both get 1 bid, and Dualities.com with 5 bids. Some domains with no bid: SeducingGirl.com, LawFacility.com, and Democracy.cc (one-word.cc).

Interested in domains with good SEO Metrics? We pick top 3 SEO domains.

ideomancer.com DA: 46, PA: 55, Spam Score: 3/17, TF: 26, CF: 24, Backlinks: 375,389 view full metrics

THPS.org DA: 33, PA: 44, Spam Score: 4/17, TF: 25, CF: 27, Backlinks: 41,005 view full metrics

ExtremeOutdoorSupply.com DA: 25, PA: 34, Spam Score: 2/17, TF: 31, CF: 21, Backlinks: 1,767 view full metrics

Check the full list below, some of them may what you looking for.

.Domain NameAgeEstibot ValueMarketplaceAuction End TimeAction
1 27994.com 5 1,600 GoDaddy 07 Sep 2017 09:19 Bid Now
2 HopeRadio.com 12 2,700 GoDaddy 07 Sep 2017 09:40 Bid Now
3 BidShop.com 21 540 GoDaddy 07 Sep 2017 09:41 Bid Now
4 ElectroLove.com 13 1,000 GoDaddy 07 Sep 2017 09:42 Bid Now
5 THPS.org 11 1,900 GoDaddy 07 Sep 2017 09:45 Bid Now
6 GreenTowers.com 13 1,700 GoDaddy 07 Sep 2017 09:50 Bid Now
7 KineticGroup.com 13 3,700 GoDaddy 07 Sep 2017 10:07 Bid Now
8 UGI.cc 5 570 GoDaddy 07 Sep 2017 10:17 Bid Now
9 ideomancer.com 17 580 GoDaddy 07 Sep 2017 10:35 Bid Now
10 PoppyArts.com 10 190 GoDaddy 07 Sep 2017 10:48 Bid Now
11 Dualities.com 9 2,300 GoDaddy 07 Sep 2017 10:49 Bid Now
12 SemCash.com 13 55 GoDaddy 07 Sep 2017 10:50 Bid Now
13 NKFT.com 14 900 GoDaddy 07 Sep 2017 10:59 Bid Now
14 GiantCo.com 20 800 GoDaddy 07 Sep 2017 11:08 Bid Now
15 Explore.info 16 2,800 GoDaddy 07 Sep 2017 11:09 Bid Now
16 AtRetail.com 20 530 GoDaddy 07 Sep 2017 11:19 Bid Now
17 Artcadia.com 13 890 GoDaddy 07 Sep 2017 11:29 Bid Now
18 AudioPack.com 21 2,500 GoDaddy 07 Sep 2017 11:33 Bid Now
19 ExtremeOutdoorSupply.com 13 850 GoDaddy 07 Sep 2017 11:43 Bid Now
20 LawFacility.com 6 0 GoDaddy 07 Sep 2017 12:02 Bid Now
21 TvMediaInsights.com 6 1,800 GoDaddy 07 Sep 2017 12:09 Bid Now
22 SemPay.com 13 680 GoDaddy 07 Sep 2017 12:10 Bid Now
23 LeaderAuto.com 19 1,400 GoDaddy 07 Sep 2017 12:16 Bid Now
24 SemiMix.com 2 75 GoDaddy 07 Sep 2017 12:18 Bid Now
25 SeducingGirl.com 1 3,800 GoDaddy 07 Sep 2017 12:21 Bid Now
26 FrogJeans.com 3 250 GoDaddy 07 Sep 2017 12:22 Bid Now
27 OnlineHorseBetting.com 15 4,900 GoDaddy 07 Sep 2017 12:22 Bid Now
28 MVNY.com 13 1,000 GoDaddy 07 Sep 2017 12:37 Bid Now
29 Nominal.net 18 0 GoDaddy 07 Sep 2017 12:37 Bid Now
30 PostMatter.com 7 2,000 GoDaddy 07 Sep 2017 12:40 Bid Now
31 CoupleShops.com 6 85 GoDaddy 07 Sep 2017 13:05 Bid Now
32 zFactory.com 14 510 GoDaddy 07 Sep 2017 13:07 Bid Now
33 KFRK.com 11 1,100 GoDaddy 07 Sep 2017 13:10 Bid Now
34 50997.com 5 1,300 GoDaddy 07 Sep 2017 13:16 Bid Now
35 Democracy.cc 14 0 GoDaddy 07 Sep 2017 13:24 Bid Now
36 ExpertMovers.com 16 890 GoDaddy 07 Sep 2017 13:28 Bid Now
37 HandToolsMakers.com 17 0 GoDaddy 07 Sep 2017 13:32 Bid Now
38 SEMjob.com 13 650 GoDaddy 07 Sep 2017 13:35 Bid Now
39 HtmlDomain.com 1 2,200 GoDaddy 07 Sep 2017 13:59 Bid Now
40 CandyBear.com 12 1,000 GoDaddy 07 Sep 2017 14:15 Bid Now
41 SkinnyDevil.com 18 25 GoDaddy 07 Sep 2017 14:15 Bid Now
42 TangoWebs.com 13 1,000 GoDaddy 07 Sep 2017 14:15 Bid Now


Need more suggestions? Find more here!

 

Updated: September 6, 2017 — 9:18 pm

Leave a Reply

Your email address will not be published. Required fields are marked *

Buycom Domain © 2017 About Us | Terms of Service | Privacy Policy | Contact Us